Location: Couloutre
(47.4081°N, 3.2259°E)
Time: 02:28:49
(UTC+00:00)

Okean 1 - Pass Details

Date: 27 February 2020
Orbit: 538 x 556 km, 82.5° (Epoch: 05 April)

Event Time Altitude Azimuth Distance (km) Brightness Sun altitude
Rises 18:41:12 0° 352° (N) 2,729 7.0 -13.1°
Reaches altitude 10° 18:43:23 10° 354° (N) 1,827 6.1 -13.5°
Maximum altitude 18:47:24 74° 80° (E) 570 3.2 -14.2°
Drops below altitude 10° 18:51:22 10° 166° (SSE) 1,801 5.8 -14.8°
Sets 18:53:30 0° 168° (SSE) 2,686 6.7 -15.2°
